This is the latest recevied weather packets stored in our database for station/object WC4PEM-11. If no packets are shown the sender has not sent any weather packets the latest 1 day(s).
| Time | Temp. | Humidity | Pressure | Rain* | Wind** | Luminosity | Snow |
|---|---|---|---|---|---|---|---|
| 1778005303 | 29.44° C | 52% | 1015.6 hPa | 0 mm | 2.24 m/s, 86° | - | - |
| 1778005084 | 28.89° C | 52% | 1015.5 hPa | 0 mm | 2.24 m/s, 54° | - | - |
| 1778004784 | 29.44° C | 54% | 1015.6 hPa | 0 mm | 2.24 m/s, 76° | - | - |
| 1778004484 | 29.44° C | 52% | 1015.6 hPa | 0 mm | 2.24 m/s, 86° | - | - |
| 1778004184 | 29.44° C | 52% | 1015.7 hPa | 0 mm | 1.79 m/s, 340° | - | - |
| 1778003884 | 29.44° C | 53% | 1015.6 hPa | 0 mm | 1.79 m/s, 239° | - | - |
| 1778003584 | 29.44° C | 52% | 1015.8 hPa | 0 mm | 2.68 m/s, 53° | - | - |
| 1778003284 | 29.44° C | 53% | 1015.8 hPa | 0 mm | 2.24 m/s, 74° | - | - |
| 1778003213 | 29.44° C | 51% | 1015.9 hPa | 0 mm | 1.79 m/s, 121° | - | - |
| 1778002984 | 29.44° C | 52% | 1015.9 hPa | 0 mm | 1.79 m/s, 36° | - | - |
| 1778002684 | 29.44° C | 51% | 1015.9 hPa | 0 mm | 1.79 m/s, 121° | - | - |
| 1778002541 | 29.44° C | 54% | 1016.1 hPa | 0 mm | 1.34 m/s, 68° | - | - |
| 1778002384 | 30° C | 52% | 1015.9 hPa | 0 mm | 1.79 m/s, 144° | - | - |
| 1778002092 | 29.44° C | 53% | 1016 hPa | 0 mm | 1.34 m/s, 66° | - | - |
| 1778001784 | 28.89° C | 56% | 1016 hPa | 0 mm | 1.79 m/s, 93° | - | - |
| 1778001484 | 28.89° C | 54% | 1016 hPa | 0 mm | 1.79 m/s, 71° | - | - |
| 1778001184 | 28.89° C | 54% | 1016.2 hPa | 0 mm | 1.79 m/s, 111° | - | - |
| 1778000884 | 29.44° C | 53% | 1016.1 hPa | 0 mm | 1.79 m/s, 59° | - | - |
| 1778000584 | 29.44° C | 54% | 1016.1 hPa | 0 mm | 1.34 m/s, 68° | - | - |
| 1778000372 | 29.44° C | 54% | 1016.2 hPa | 0 mm | 1.79 m/s, 128° | - | - |
| 1778000284 | 29.44° C | 54% | 1016.2 hPa | 0 mm | 1.79 m/s, 128° | - | - |
| 1777999984 | 28.89° C | 54% | 1016.2 hPa | 0 mm | 1.79 m/s, 88° | - | - |
| 1777999684 | 29.44° C | 54% | 1016.3 hPa | 0 mm | 1.79 m/s, 25° | - | - |
| 1777999384 | 29.44° C | 54% | 1016.3 hPa | 0 mm | 2.68 m/s, 93° | - | - |
| 1777999204 | 29.44° C | 54% | 1016.3 hPa | 0 mm | 2.24 m/s, 102° | - | - |
* Rain latest hour (hover to see other rain measurements)
** Current wind speed in m/s (hover to see current wind gust speed)